#timestamp,LO_Frequency,Hit,Temp,Hum 
1478181615.9,286046972.3,N,0.0,0.0
1478181635.7,286046975.4,N,0.0,0.0
1478181655.5,286046974.4,N,0.0,0.0
1478181675.4,286046970.9,N,0.0,0.0
1478181695.2,286046968.9,N,0.0,0.0
1478181715.0,286046967.9,N,0.0,0.0
1478181715.9,286046967.9,N,0.0,0.0
1478181735.8,286046967.7,N,0.0,0.0
1478181755.6,286046971.4,N,0.0,0.0
1478181775.4,286046975.6,N,0.0,0.0
1478181795.3,286046973.0,N,0.0,0.0
1478181815.1,286046974.7,N,0.0,0.0
1478181835.8,286046974.1,N,0.0,0.0
1478181855.7,286046974.5,N,0.0,0.0
1478181875.5,286046975.4,N,0.0,0.0
1478181895.4,286046975.6,N,0.0,0.0
1478181915.2,286046976.1,N,0.0,0.0
1478181935.0,286046980.1,N,0.0,0.0
1478181935.9,286046980.1,N,0.0,0.0
1478181955.8,286046979.8,N,0.0,0.0
1478181975.6,286046975.9,N,0.0,0.0
1478181995.4,286046979.4,N,0.0,0.0
1478182015.3,286046979.1,N,0.0,0.0
1478182035.1,286046980.3,N,0.0,0.0
1478182055.8,286046979.5,N,0.0,0.0
1478182075.7,286046980.1,N,0.0,0.0
1478182095.5,286046974.1,N,0.0,0.0
1478182115.3,286046975.9,N,0.0,0.0
1478182135.2,286046980.2,N,0.0,0.0
1478182155.0,286046980.1,N,0.0,0.0
1478182155.9,286046980.1,N,0.0,0.0
1478182175.8,286046980.7,N,0.0,0.0
1478182195.6,286046977.9,N,0.0,0.0
1478182215.4,286046975.9,N,0.0,0.0
1478182235.3,286046976.1,N,0.0,0.0
1478182255.1,286046978.0,N,0.0,0.0
1478182256.0,286046978.0,N,0.0,0.0
1478182275.8,286046976.3,N,0.0,0.0
1478182295.7,286046976.1,N,0.0,0.0
1478182315.5,286046979.6,N,0.0,0.0
1478182335.3,286046979.5,N,0.0,0.0
1478182355.2,286046977.4,N,0.0,0.0
1478182375.0,286046977.5,N,0.0,0.0
1478182375.9,286046977.5,N,0.0,0.0
1478182395.7,286046980.3,N,0.0,0.0
1478182415.6,286046979.1,N,0.0,0.0
1478182435.4,286046983.1,N,0.0,0.0
1478182455.3,286046983.3,N,0.0,0.0
1478182475.1,286046981.4,N,0.0,0.0
1478182476.0,286046981.4,N,0.0,0.0
1478182495.8,286046978.9,N,0.0,0.0
1478182515.7,286046981.0,N,0.0,0.0
1478182535.5,286046983.6,N,0.0,0.0
1478182555.3,286046983.1,N,0.0,0.0
1478182575.2,286046985.0,N,0.0,0.0
1478182595.9,286046985.9,N,0.0,0.0
1478182615.7,286046984.0,N,0.0,0.0
1478182635.6,286046985.2,N,0.0,0.0
1478182655.4,286046985.2,N,0.0,0.0
1478182675.2,286046985.1,N,0.0,0.0
1478182695.1,286046985.5,N,0.0,0.0
1478182696.0,286046985.5,N,0.0,0.0
1478182715.8,286046984.8,N,0.0,0.0
1478182735.7,286046983.9,N,0.0,0.0
1478182755.5,286046982.8,N,0.0,0.0
1478182775.3,286046986.3,N,0.0,0.0
1478182795.2,286046980.9,N,0.0,0.0
1478182815.9,286046983.4,N,0.0,0.0
1478182835.7,286046983.3,N,0.0,0.0
1478182855.6,286046982.6,N,0.0,0.0
1478182875.4,286046980.7,N,0.0,0.0
1478182895.2,286046983.5,N,0.0,0.0
1478182915.1,286046985.0,N,0.0,0.0
1478182916.0,286046985.0,N,0.0,0.0
1478182935.8,286046986.8,N,0.0,0.0
1478182955.6,286046983.7,N,0.0,0.0
1478182975.5,286046985.3,N,0.0,0.0
1478182995.3,286046983.7,N,0.0,0.0
1478183015.2,286046984.6,N,0.0,0.0
1478183035.9,286046988.3,N,0.0,0.0
1478183055.7,286046988.0,N,0.0,0.0
1478183075.6,286046985.7,N,0.0,0.0
1478183095.4,286046989.9,N,0.0,0.0
1478183115.2,286046987.1,N,0.0,0.0
1478183135.1,286046985.4,N,0.0,0.0
1478183136.0,286046985.4,N,0.0,0.0
1478183155.8,286046985.7,N,0.0,0.0
1478183175.6,286046986.7,N,0.0,0.0
1478183195.5,286046983.8,N,0.0,0.0
1478183215.3,286046985.6,N,0.0,0.0
1478183235.1,286046985.3,N,0.0,0.0
1478183255.9,286046987.0,N,0.0,0.0
1478183275.7,286046987.6,N,0.0,0.0
1478183295.5,286046985.4,N,0.0,0.0
1478183315.4,286046986.6,N,0.0,0.0
1478183335.2,286046986.3,N,0.0,0.0
1478183355.1,286046984.6,N,0.0,0.0
1478183356.0,286046984.6,N,0.0,0.0
1478183375.8,286046989.8,N,0.0,0.0
1478183395.6,286046992.1,N,0.0,0.0
1478183415.5,286046989.6,N,0.0,0.0
1478183435.3,286046988.7,N,0.0,0.0
1478183455.1,286046992.6,N,0.0,0.0
1478183475.9,286046990.1,N,0.0,0.0
1478183495.7,286046988.8,N,0.0,0.0
1478183515.5,286046989.5,N,0.0,0.0
1478183535.4,286046987.3,N,0.0,0.0
1478183555.2,286046987.1,N,0.0,0.0
1478183575.0,286046987.8,N,0.0,0.0
1478183575.9,286046987.8,N,0.0,0.0
1478183595.8,286046985.6,N,0.0,0.0
1478183615.6,286046987.8,N,0.0,0.0
1478183635.5,286046990.0,N,0.0,0.0
1478183655.3,286046987.3,N,0.0,0.0
1478183675.1,286046986.8,N,0.0,0.0
1478183695.9,286046986.1,N,0.0,0.0
1478183715.7,286046989.8,N,0.0,0.0
1478183735.5,286046994.8,N,0.0,0.0
1478183755.4,286046994.7,N,0.0,0.0
1478183775.2,286046991.5,N,0.0,0.0
1478183795.0,286046988.8,N,0.0,0.0
1478183795.9,286046988.8,N,0.0,0.0
1478183815.8,286046989.3,N,0.0,0.0
1478183835.6,286046990.1,N,0.0,0.0
1478183855.4,286046988.6,N,0.0,0.0
1478183875.3,286046988.5,N,0.0,0.0
1478183895.1,286046988.7,N,0.0,0.0
1478183915.8,286046994.4,N,0.0,0.0
1478183935.7,286046991.8,N,0.0,0.0
1478183955.5,286046991.0,N,0.0,0.0
1478183975.4,286046989.2,N,0.0,0.0
1478183995.2,286046989.9,N,0.0,0.0
1478184015.0,286046990.8,N,0.0,0.0
1478184015.9,286046990.8,N,0.0,0.0
1478184035.8,286046991.2,N,0.0,0.0
1478184055.6,286046990.0,N,0.0,0.0
1478184075.4,286046988.7,N,0.0,0.0
1478184095.3,286046992.3,N,0.0,0.0
1478184115.1,286046988.6,N,0.0,0.0
1478184135.8,286046993.0,N,0.0,0.0
1478184155.7,286046991.0,N,0.0,0.0
1478184175.5,286046983.9,N,0.0,0.0
1478184195.3,286046991.9,N,0.0,0.0
1478184215.2,286046991.2,N,0.0,0.0
1478184235.0,286046989.0,N,0.0,0.0
1478184235.9,286046989.0,N,0.0,0.0
1478184255.8,286046988.5,N,0.0,0.0
1478184275.6,286046991.9,N,0.0,0.0
1478184295.4,286046991.7,N,0.0,0.0
1478184315.3,286046993.6,N,0.0,0.0
1478184335.1,286046992.4,N,0.0,0.0
1478184336.0,286046992.4,N,0.0,0.0
1478184355.8,286046990.4,N,0.0,0.0
1478184375.7,286046991.3,N,0.0,0.0
1478184395.5,286046988.7,N,0.0,0.0
1478184415.3,286046991.3,N,0.0,0.0
1478184435.2,286046991.3,N,0.0,0.0
1478184455.0,286046991.2,N,0.0,0.0
1478184455.9,286046991.2,N,0.0,0.0
1478184475.7,286046991.5,N,0.0,0.0
1478184495.6,286046992.9,N,0.0,0.0
1478184515.4,286046990.7,N,0.0,0.0
1478184535.3,286046989.2,N,0.0,0.0
1478184555.1,286046991.1,N,0.0,0.0
1478184556.0,286046991.1,N,0.0,0.0
1478184575.8,286046990.5,N,0.0,0.0
1478184595.7,286046991.4,N,0.0,0.0
1478184615.5,286046993.5,N,0.0,0.0
1478184635.3,286046996.1,N,0.0,0.0
1478184655.2,286046993.0,N,0.0,0.0
1478184675.9,286046991.5,N,0.0,0.0
1478184695.7,286046994.1,N,0.0,0.0
1478184715.6,286046991.7,N,0.0,0.0
1478184735.4,286046994.0,N,0.0,0.0
1478184755.2,286046990.3,N,0.0,0.0
1478184775.1,286046989.2,N,0.0,0.0
1478184776.0,286046989.2,N,0.0,0.0
1478184795.8,286046984.5,N,0.0,0.0
1478184815.7,286046985.0,N,0.0,0.0
1478184835.5,286046986.6,N,0.0,0.0
1478184855.3,286046987.5,N,0.0,0.0
1478184875.2,286046986.6,N,0.0,0.0
1478184895.9,286046986.7,N,0.0,0.0
1478184915.7,286046984.1,N,0.0,0.0
1478184935.6,286046984.3,N,0.0,0.0
1478184955.4,286046977.7,N,0.0,0.0
1478184975.2,286046978.7,N,0.0,0.0
1478184995.1,286046981.7,N,0.0,0.0
1478184996.0,286046981.7,N,0.0,0.0
1478185015.8,286046978.6,N,0.0,0.0
1478185035.6,286046977.5,N,0.0,0.0
1478185055.5,286046980.4,N,0.0,0.0
1478185075.3,286046979.7,N,0.0,0.0
1478185095.1,286046977.8,N,0.0,0.0
1478185115.9,286046979.8,N,0.0,0.0
1478185135.7,286046979.0,N,0.0,0.0
1478185155.6,286046980.2,N,0.0,0.0
1478185175.4,286046980.3,N,0.0,0.0
1478185195.2,286046979.6,N,0.0,0.0
